EW5956 Weather Reports


Display with metric or nautical units.
time (UTC)temp
F
wind
direction
speed
MPH
gust
MPH
rain 1hr
in
rain 24hr
in
rain mn
in
humidity
%
barometer
mb
20260507132105 63 119 8.0 16.0 0.00 0.00 0.00 79 1013.7
20260507130604 64 90 9.0 12.0 0.00 0.00 0.00 79 1013.9
20260507130112 64 127 5.0 17.0 0.00 0.00 0.00 80 1013.7
20260507125605 64 100 10.0 18.0 0.00 0.00 0.00 79 1013.6
20260507125105 65 117 7.0 18.0 0.00 0.00 0.00 79 1013.9
20260507124605 65 103 1.0 14.0 0.00 0.00 0.00 79 1013.8
20260507124105 64 111 9.0 14.0 0.00 0.00 0.00 79 1013.9
20260507123105 64 93 10.0 15.0 0.00 0.00 0.00 80 1013.6
20260507122604 64 146 5.0 12.0 0.00 0.00 0.00 80 1013.8
20260507122105 64 128 9.0 14.0 0.00 0.00 0.00 80 1013.9
20260507121604 64 148 7.0 12.0 0.00 0.00 0.00 80 1013.9
20260507121105 63 111 7.0 14.0 0.00 0.00 0.00 81 1013.9
20260507120605 63 103 5.0 10.0 0.00 0.00 0.00 80 1014.1
20260507115604 64 146 4.0 10.0 0.00 0.00 0.00 81 1014.2
20260507115105 64 129 4.0 8.0 0.00 0.00 0.00 80 1013.9
20260507114604 64 126 5.0 8.0 0.00 0.00 0.00 81 1013.9
20260507114105 64 128 5.0 9.0 0.00 0.00 0.00 81 1014.1
20260507113604 64 141 4.0 13.0 0.00 0.00 0.00 81 1014.1
20260507112605 65 129 5.0 9.0 0.00 0.00 0.00 79 1014.0
20260507112105 64 136 2.0 7.0 0.00 0.00 0.00 79 1013.9
20260507111605 64 167 7.0 13.0 0.00 0.00 0.00 79 1013.9
20260507111105 64 200 2.0 12.0 0.00 0.00 0.00 80 1013.9
20260507110605 64 150 6.0 12.0 0.00 0.00 0.00 80 1014.1
20260507110111 64 110 7.0 12.0 0.00 0.00 0.00 78 1013.9
20260507105604 65 173 1.0 6.0 0.00 0.00 0.00 77 1014.2
20260507105104 65 147 3.0 8.0 0.00 0.00 0.00 76 1014.2
20260507104604 65 191 2.0 5.0 0.00 0.00 0.00 76 1014.1
20260507104104 65 202 3.0 5.0 0.00 0.00 0.00 76 1014.0
20260507103104 64 121 5.0 12.0 0.00 0.00 0.00 77 1014.0
20260507102605 64 125 5.0 10.0 0.00 0.00 0.00 78 1014.2
20260507102105 64 40 5.0 10.0 0.00 0.00 0.00 77 1014.2
20260507101605 64 94 7.0 12.0 0.00 0.00 0.00 77 1014.2
20260507101104 64 129 3.0 9.0 0.00 0.00 0.00 77 1014.2
20260507100605 63 166 5.0 8.0 0.00 0.00 0.00 78 1014.2
20260507100111 64 126 3.0 9.0 0.00 0.00 0.00 77 1014.2
20260507095604 63 156 3.0 15.0 0.00 0.00 0.00 77 1014.2
20260507094105 64 117 6.0 18.0 0.00 0.00 0.00 74 1014.0
20260507093605 65 71 5.0 15.0 0.00 0.00 0.00 75 1013.9
20260507092104 63 92 11.0 17.0 0.00 0.00 0.00 76 1013.6
20260507091605 63 113 7.0 14.0 0.00 0.00 0.00 77 1013.5
20260507091105 62 303 8.0 18.0 0.00 0.00 0.00 77 1013.4
20260507090604 62 117 6.0 22.0 0.00 0.00 0.00 77 1013.5
20260507085105 62 100 11.0 15.0 0.00 0.00 0.00 76 1013.4
20260507084605 62 92 14.0 24.0 0.00 0.00 0.00 76 1013.3
20260507084105 62 112 11.0 17.0 0.00 0.00 0.00 77 1013.5
20260507083604 62 79 8.0 21.0 0.00 0.00 0.00 77 1013.5
20260507083105 61 97 10.0 14.0 0.00 0.00 0.00 78 1013.2
20260507082605 61 116 13.0 24.0 0.00 0.00 0.00 79 1013.5
20260507082104 61 136 9.0 20.0 0.00 0.00 0.00 78 1013.2
20260507081605 61 80 11.0 21.0 0.00 0.00 0.00 79 1013.0
20260507075605 61 83 13.0 20.0 0.00 0.00 0.00 80 1013.2
20260507075105 61 93 16.0 23.0 0.00 0.00 0.00 80 1013.1
20260507074606 61 58 7.0 17.0 0.00 0.00 0.00 80 1013.2
20260507074105 60 117 7.0 15.0 0.00 0.00 0.00 80 1013.2
20260507073606 60 101 12.0 22.0 0.00 0.00 0.00 80 1013.1
20260507073105 60 120 6.0 16.0 0.00 0.00 0.00 81 1013.0
20260507072605 60 92 7.0 14.0 0.00 0.00 0.00 81 1013.1
20260507072105 60 116 8.0 23.0 0.00 0.00 0.00 81 1013.2
20260507071604 60 117 14.0 20.0 0.00 0.00 0.00 81 1013.1
20260507071105 60 85 4.0 14.0 0.00 0.00 0.00 82 1013.4
20260507070605 60 191 6.0 22.0 0.00 0.00 0.00 82 1012.9
20260507070115 60 115 13.0 23.0 0.00 0.00 0.00 82 1013.0
20260507065606 60 106 16.0 23.0 0.00 0.00 0.00 82 1012.9
20260507064605 60 101 12.0 32.0 0.00 0.00 0.00 82 1012.9
20260507064106 60 104 13.0 32.0 0.00 0.00 0.00 82 1013.2
20260507063605 60 120 12.0 23.0 0.00 0.00 0.00 82 1013.2
20260507063105 61 66 12.0 26.0 0.00 0.00 0.00 82 1013.1
20260507062104 61 111 11.0 24.0 0.00 0.00 0.00 81 1012.9
20260507061105 61 94 13.0 31.0 0.00 0.00 0.00 79 1013.2
20260507060605 61 102 12.0 31.0 0.00 0.00 0.00 79 1013.2
20260507055605 61 203 4.0 14.0 0.00 0.00 0.00 80 1013.2
20260507055105 61 86 13.0 18.0 0.00 0.00 0.00 80 1013.4
20260507054105 60 112 6.0 13.0 0.00 0.00 0.00 81 1013.4
20260507053605 60 70 6.0 9.0 0.00 0.00 0.00 81 1013.5
20260507053105 60 55 7.0 16.0 0.00 0.00 0.00 80 1013.5
20260507052606 60 92 5.0 10.0 0.00 0.00 0.00 80 1013.5
20260507052104 60 120 6.0 13.0 0.00 0.00 0.00 80 1013.5
20260507051605 61 141 5.0 12.0 0.00 0.00 0.00 80 1013.5
20260507051105 60 92 7.0 13.0 0.00 0.00 0.00 79 1013.2
20260507050113 60 144 6.0 10.0 0.00 0.00 0.00 78 1013.4
20260507045606 60 129 4.0 10.0 0.00 0.00 0.00 79 1013.5
20260507045105 60 70 7.0 17.0 0.00 0.00 0.00 79 1013.2
20260507044605 61 119 4.0 12.0 0.00 0.00 0.00 77 1013.2
20260507044106 61 104 4.0 12.0 0.00 0.00 0.00 74 1012.9
20260507043608 62 37 5.0 8.0 0.00 0.00 0.00 72 1013.1
20260507043105 62 316 4.0 6.0 0.00 0.00 0.00 71 1013.0
20260507042105 62 191 1.0 5.0 0.00 0.00 0.00 70 1012.9
20260507041605 62 105 3.0 9.0 0.00 0.00 0.00 69 1012.6
20260507041105 63 185 2.0 8.0 0.00 0.00 0.00 70 1012.9
20260507040605 63 161 3.0 10.0 0.00 0.00 0.00 70 1012.9
20260507040114 63 214 3.0 13.0 0.00 0.00 0.00 70 1012.6
20260507035105 63 135 7.0 16.0 0.00 0.00 0.00 71 1011.9
20260507034605 64 115 11.0 17.0 0.00 0.00 0.00 70 1011.6
20260507034105 64 125 11.0 24.0 0.00 0.00 0.00 70 1011.3
20260507033605 64 126 11.0 30.0 0.00 0.00 0.00 70 1011.2
20260507033105 64 132 8.0 29.0 0.00 0.00 0.00 70 1011.2
20260507032106 64 116 12.0 21.0 0.00 0.00 0.00 70 1011.2
20260507031105 64 116 13.0 22.0 0.00 0.00 0.00 70 1011.2
20260507030606 64 114 17.0 28.0 0.00 0.00 0.00 70 1011.2
20260507030119 64 119 16.0 25.0 0.00 0.00 0.00 70 1011.2
20260507025606 64 91 12.0 23.0 0.00 0.00 0.00 70 1011.0
20260507024605 64 127 14.0 26.0 0.00 0.00 0.00 70 1011.4
20260507023605 64 123 10.0 25.0 0.00 0.00 0.00 70 1011.2
20260507023105 64 88 18.0 26.0 0.00 0.00 0.00 70 1011.2
20260507022605 64 128 19.0 28.0 0.00 0.00 0.00 71 1011.2
20260507022105 64 126 17.0 24.0 0.00 0.00 0.00 71 1011.2
20260507021605 64 79 18.0 24.0 0.00 0.00 0.00 71 1011.2
20260507021105 64 107 12.0 24.0 0.00 0.00 0.00 70 1011.2
20260507020605 64 118 12.0 23.0 0.00 0.00 0.00 70 1011.5
20260507015606 64 103 15.0 25.0 0.00 0.00 0.00 70 1011.2
20260507015105 64 120 17.0 26.0 0.00 0.00 0.00 70 1011.3
20260507014605 64 118 16.0 26.0 0.00 0.00 0.00 70 1011.2
20260507014110 64 79 9.0 21.0 0.00 0.00 0.00 70 1011.2
20260507013606 64 91 13.0 28.0 0.00 0.00 0.00 70 1011.2
20260507013105 64 91 13.0 31.0 0.00 0.00 0.00 70 1011.3
20260507012606 64 82 18.0 25.0 0.00 0.00 0.00 70 1011.5
20260507012106 64 115 13.0 24.0 0.00 0.00 0.00 70 1011.3
20260507011605 64 102 10.0 24.0 0.00 0.00 0.00 70 1011.5
20260507010605 64 128 10.0 24.0 0.00 0.00 0.00 70 1011.2
20260507010114 64 91 18.0 25.0 0.00 0.00 0.00 70 1011.3
20260507005605 64 83 12.0 25.0 0.00 0.00 0.00 69 1011.2
20260507004606 64 107 13.0 22.0 0.00 0.00 0.00 68 1011.2
20260507004105 64 95 17.0 28.0 0.00 0.00 0.00 67 1011.5
20260507003605 64 92 11.0 23.0 0.00 0.00 0.00 65 1011.5
20260507003105 64 90 15.0 23.0 0.00 0.00 0.00 65 1011.7
20260507002604 65 99 14.0 18.0 0.00 0.00 0.00 64 1011.9
20260507002105 65 128 13.0 21.0 0.00 0.00 0.00 64 1011.9
20260507001605 65 86 13.0 26.0 0.00 0.00 0.00 64 1011.7
20260507001105 65 123 20.0 26.0 0.00 0.00 0.00 64 1011.8
20260507000605 65 100 13.0 21.0 0.00 0.00 0.00 63 1011.6
20260506235605 65 126 14.0 24.0 0.00 0.00 0.00 64 1011.9
20260506234105 65 107 8.0 21.0 0.00 0.00 0.00 65 1012.0
20260506233605 65 122 12.0 18.0 0.00 0.00 0.00 66 1012.1
20260506233106 65 94 13.0 22.0 0.00 0.00 0.00 66 1012.1
20260506232605 65 105 9.0 21.0 0.00 0.00 0.00 67 1012.2
20260506232105 65 99 14.0 18.0 0.00 0.00 0.00 67 1012.2
20260506231605 65 106 12.0 18.0 0.00 0.00 0.00 68 1012.5
20260506231105 65 101 15.0 21.0 0.00 0.00 0.00 68 1012.3
20260506230605 65 155 11.0 16.0 0.00 0.00 0.00 67 1012.2
20260506230115 65 136 10.0 23.0 0.00 0.00 0.00 67 1012.2
20260506225606 65 94 10.0 17.0 0.00 0.00 0.00 67 1012.0
20260506224605 66 106 15.0 29.0 0.00 0.00 0.00 66 1012.4
20260506224105 66 101 15.0 23.0 0.00 0.00 0.00 67 1012.5
20260506223605 66 96 17.0 24.0 0.00 0.00 0.00 67 1012.4
20260506221606 66 119 12.0 18.0 0.00 0.00 0.00 68 1012.5
20260506221105 66 111 11.0 21.0 0.00 0.00 0.00 68 1012.2
20260506220605 66 84 10.0 20.0 0.00 0.00 0.00 68 1012.4
20260506220114 66 93 7.0 18.0 0.00 0.00 0.00 68 1012.5
20260506215105 65 121 12.0 21.0 0.00 0.00 0.00 68 1012.3
20260506214605 65 129 13.0 17.0 0.00 0.00 0.00 68 1012.4
20260506214105 65 147 12.0 21.0 0.00 0.00 0.00 68 1012.4
20260506213605 65 112 5.0 24.0 0.00 0.00 0.00 68 1012.5
20260506213105 65 92 12.0 24.0 0.00 0.00 0.00 68 1012.5
20260506212605 65 94 7.0 24.0 0.00 0.00 0.00 68 1012.2
20260506212106 65 155 9.0 25.0 0.00 0.00 0.00 68 1012.5
20260506211605 65 75 12.0 25.0 0.00 0.00 0.00 69 1012.2
20260506211105 65 103 13.0 22.0 0.00 0.00 0.00 69 1012.5
20260506210604 65 125 12.0 22.0 0.00 0.00 0.00 69 1012.5
20260506210115 65 129 11.0 21.0 0.00 0.00 0.00 68 1012.6
20260506205105 65 90 12.0 17.0 0.00 0.00 0.00 69 1012.5
20260506203606 65 115 12.0 23.0 0.00 0.00 0.00 68 1012.6
20260506203105 65 65 8.0 21.0 0.00 0.00 0.00 68 1012.9
20260506202605 65 92 12.0 21.0 0.00 0.00 0.00 67 1012.9
20260506202105 65 91 6.0 21.0 0.00 0.00 0.00 66 1012.9
20260506201605 65 127 11.0 24.0 0.00 0.00 0.00 66 1012.9
20260506200605 65 90 14.0 24.0 0.00 0.00 0.00 65 1012.6
20260506200113 65 95 9.0 20.0 0.00 0.00 0.00 64 1012.7
20260506195605 65 111 15.0 24.0 0.00 0.00 0.00 64 1012.9
20260506195106 65 131 10.0 20.0 0.00 0.00 0.00 64 1012.8
20260506194605 65 85 9.0 21.0 0.00 0.00 0.00 65 1012.9
20260506194106 65 129 14.0 21.0 0.00 0.00 0.00 64 1012.9
20260506192605 65 120 9.0 18.0 0.00 0.00 0.00 63 1012.6
20260506191605 65 107 13.0 22.0 0.00 0.00 0.00 63 1012.6
20260506191105 65 91 7.0 17.0 0.00 0.00 0.00 63 1012.7
20260506190605 65 113 9.0 24.0 0.00 0.00 0.00 62 1012.7
20260506190113 65 95 12.0 24.0 0.00 0.00 0.00 62 1012.6
20260506185105 65 94 12.0 21.0 0.00 0.00 0.00 62 1012.9
20260506184605 65 92 12.0 22.0 0.00 0.00 0.00 62 1012.3
20260506183605 65 91 7.0 21.0 0.00 0.00 0.00 62 1012.5
20260506183105 65 137 8.0 15.0 0.00 0.00 0.00 62 1012.2
20260506182105 65 97 12.0 18.0 0.00 0.00 0.00 62 1012.5
20260506180605 65 83 8.0 15.0 0.00 0.00 0.00 61 1012.4
20260506180114 65 94 8.0 16.0 0.00 0.00 0.00 61 1012.3
20260506175605 65 74 12.0 16.0 0.00 0.00 0.00 60 1012.3
20260506175105 65 126 10.0 17.0 0.00 0.00 0.00 60 1012.4
20260506174605 65 112 8.0 17.0 0.00 0.00 0.00 60 1012.5
20260506173605 65 104 11.0 18.0 0.00 0.00 0.00 58 1012.3
20260506173106 65 103 11.0 18.0 0.00 0.00 0.00 58 1012.3
20260506172606 66 110 8.0 15.0 0.00 0.00 0.00 58 1012.3
20260506172105 66 140 12.0 21.0 0.00 0.00 0.00 57 1012.3
20260506171606 66 119 12.0 21.0 0.00 0.00 0.00 57 1012.1
20260506171104 66 121 10.0 21.0 0.00 0.00 0.00 57 1012.2
20260506170605 66 121 12.0 21.0 0.00 0.00 0.00 56 1012.2
20260506170115 66 119 7.0 15.0 0.00 0.00 0.00 56 1012.2
20260506165605 66 100 7.0 21.0 0.00 0.00 0.00 56 1012.1
20260506165105 66 135 11.0 17.0 0.00 0.00 0.00 56 1012.2
20260506164605 66 111 7.0 20.0 0.00 0.00 0.00 57 1012.2
20260506164105 66 140 7.0 17.0 0.00 0.00 0.00 57 1012.1
20260506163605 66 100 12.0 16.0 0.00 0.00 0.00 56 1012.2
20260506162605 67 99 10.0 22.0 0.00 0.00 0.00 55 1012.2
20260506162105 67 127 6.0 15.0 0.00 0.00 0.00 55 1012.5
20260506161606 66 161 10.0 23.0 0.00 0.00 0.00 55 1012.6
20260506161105 66 125 10.0 25.0 0.00 0.00 0.00 54 1012.5
20260506160606 66 105 10.0 20.0 0.00 0.00 0.00 54 1012.2
20260506160114 67 90 10.0 20.0 0.00 0.00 0.00 54 1012.2
20260506155606 67 98 5.0 14.0 0.00 0.00 0.00 55 1012.0
20260506155105 66 130 11.0 16.0 0.00 0.00 0.00 55 1012.4
20260506154604 67 129 10.0 16.0 0.00 0.00 0.00 56 1012.5
20260506153106 66 95 10.0 20.0 0.00 0.00 0.00 62 1012.4
20260506152604 66 124 5.0 13.0 0.00 0.00 0.00 64 1012.5
20260506152106 66 173 6.0 14.0 0.00 0.00 0.00 65 1012.7
20260506150605 66 110 7.0 13.0 0.00 0.00 0.00 64 1012.9
20260506150115 66 25 4.0 15.0 0.00 0.00 0.00 65 1012.9
20260506145605 66 76 6.0 12.0 0.00 0.00 0.00 66 1012.9
20260506145105 66 159 8.0 14.0 0.00 0.00 0.00 66 1012.9
20260506144106 66 109 12.0 16.0 0.00 0.00 0.00 65 1012.9
20260506143606 67 81 9.0 16.0 0.00 0.00 0.00 65 1012.6
20260506143105 67 156 7.0 12.0 0.00 0.00 0.00 64 1012.9
20260506142604 66 123 6.0 20.0 0.00 0.00 0.00 64 1012.9
20260506142105 67 109 12.0 17.0 0.00 0.00 0.00 64 1012.9
20260506141606 67 97 6.0 13.0 0.00 0.00 0.00 64 1012.9
20260506141106 67 100 6.0 15.0 0.00 0.00 0.00 65 1012.9
20260506140605 68 127 9.0 13.0 0.00 0.00 0.00 65 1012.9
20260506140114 68 251 5.0 12.0 0.00 0.00 0.00 65 1012.9
20260506135605 67 133 9.0 22.0 0.00 0.00 0.00 67 1013.2
20260506135105 68 100 10.0 16.0 0.00 0.00 0.00 67 1012.9
20260506134105 68 135 9.0 29.0 0.00 0.00 0.00 66 1012.9
20260506133605 69 105 12.0 21.0 0.00 0.00 0.00 65 1012.8
20260506133106 69 138 6.0 16.0 0.00 0.00 0.00 65 1012.9
20260506132605 69 115 6.0 17.0 0.00 0.00 0.00 64 1012.9